Orbital Elements at Epoch 2459000.5 (2020-May-31.0) TDB
Reference: JPL 14 (heliocentric ecliptic J2000)
Element | Value | Uncertainty (1-sigma) | Units |
e | .1513355186839339 | 3.8841e-08 | |
a | 3.057955885783361 | 2.5577e-08 | au |
q | 2.595178545695747 | 1.1951e-07 | au |
i | 2.383342207615832 | 3.7907e-06 | deg |
node | 90.22501167350234 | 0.00018017 | deg |
peri | 191.3930786186564 | 0.00018337 | deg |
M | 26.41452617213352 | 3.1143e-05 | deg |
tp | 2458857.187004146535 (2020-Jan-08.68700415) | 0.00016986 | TDB |
period | 1953.193412254962 5.35 | 2.4505e-05 6.709e-08 | d yr |
n | .1843135440357542 | 2.3124e-09 | deg/d |
Q | 3.520733225870975 | 2.9448e-08 | au |
|
| | Orbit Determination Parameters
Additional Information
|